EW6135 Weather Reports


Display with metric or nautical units.
time (UTC)temp
F
wind
direction
speed
MPH
gust
MPH
rain 1hr
in
rain 24hr
in
rain mn
in
humidity
%
barometer
mb
20260903133545 84 249 1.0 6.0 0.00 0.02 0.01 87 1017.9
20260903133050 84 248 2.0 6.0 0.00 0.02 0.01 87 1017.9
20260903132040 84 296 2.0 5.0 0.00 0.02 0.01 89 1017.9
20260903131541 84 264 0.0 4.0 0.00 0.02 0.01 91 1017.9
20260903131040 83 257 1.0 4.0 0.00 0.02 0.01 92 1017.9
20260903130537 83 223 0.0 4.0 0.00 0.02 0.01 93 1018.0
20260903130036 83 222 0.0 4.0 0.00 0.02 0.01 94 1018.1
20260903125535 83 246 0.0 2.0 0.00 0.02 0.01 95 1018.1
20260903125034 82 254 0.0 1.0 0.00 0.02 0.01 97 1018.1
20260903124536 81 254 0.0 1.0 0.00 0.02 0.01 97 1018.1
20260903124032 81 254 0.0 2.0 0.00 0.02 0.01 98 1018.1
20260903123530 80 254 0.0 2.0 0.00 0.02 0.01 98 1018.1
20260903123030 80 253 0.0 3.0 0.00 0.02 0.01 99 1018.0
20260903122029 79 241 1.0 3.0 0.00 0.02 0.01 99 1017.9
20260903121528 78 242 0.0 3.0 0.00 0.02 0.01 99 1017.8
20260903121027 78 242 0.0 1.0 0.00 0.02 0.01 100 1017.8
20260903120525 78 242 0.0 1.0 0.00 0.02 0.01 100 1017.8
20260903120028 77 242 0.0 1.0 0.00 0.02 0.01 100 1017.7
20260903115526 76 242 0.0 0.0 0.00 0.02 0.01 100 1017.7
20260903115024 76 242 0.0 0.0 0.00 0.02 0.01 100 1017.7
20260903114524 75 242 0.0 0.0 0.00 0.02 0.01 100 1017.7
20260903114024 75 242 0.0 0.0 0.00 0.02 0.01 100 1017.7
20260903113523 74 242 0.0 1.0 0.00 0.02 0.01 100 1017.7
20260903113023 74 242 0.0 1.0 0.00 0.02 0.01 100 1017.7
20260903112022 74 242 0.0 1.0 0.01 0.02 0.01 100 1017.4
20260903111537 74 242 0.0 1.0 0.01 0.02 0.01 100 1017.4
20260903111021 74 242 0.0 0.0 0.01 0.02 0.01 100 1017.4
20260903110521 74 241 0.0 0.0 0.01 0.02 0.01 100 1017.4
20260903110020 73 242 0.0 0.0 0.01 0.03 0.01 100 1017.3
20260903105524 73 242 0.0 1.0 0.01 0.03 0.01 100 1017.4
20260903105019 73 277 0.0 1.0 0.01 0.03 0.01 100 1017.4
20260903104519 73 277 0.0 0.0 0.01 0.03 0.01 100 1017.3
20260903104018 73 277 0.0 0.0 0.01 0.03 0.01 100 1017.3
20260903103518 73 277 0.0 0.0 0.01 0.03 0.01 100 1017.3
20260903103018 73 278 0.0 0.0 0.01 0.03 0.01 100 1017.2
20260903102017 73 277 0.0 0.0 0.00 0.02 0.00 100 1017.3
20260903101516 73 277 0.0 0.0 0.00 0.02 0.00 100 1017.2
20260903101016 73 277 0.0 0.0 0.00 0.02 0.00 100 1017.1
20260903100516 73 277 0.0 0.0 0.00 0.02 0.00 100 1017.1
20260903100016 73 277 0.0 0.0 0.00 0.02 0.00 100 1017.1
20260903095515 74 277 0.0 0.0 0.00 0.02 0.00 100 1017.0
20260903095014 74 277 0.0 0.0 0.00 0.02 0.00 100 1017.0
20260903094514 73 277 0.0 0.0 0.00 0.02 0.00 100 1017.0
20260903094014 73 277 0.0 0.0 0.00 0.02 0.00 100 1016.9
20260903093519 73 277 0.0 0.0 0.00 0.02 0.00 99 1016.8
20260903093024 73 277 0.0 0.0 0.00 0.02 0.00 100 1016.8
20260903092014 73 277 0.0 0.0 0.00 0.02 0.00 99 1016.8
20260903091525 74 277 0.0 0.0 0.00 0.02 0.00 99 1016.8
20260903091013 74 277 0.0 0.0 0.00 0.02 0.00 99 1016.7
20260903090512 74 277 0.0 0.0 0.00 0.02 0.00 100 1016.6
20260903090013 74 277 0.0 0.0 0.00 0.03 0.00 100 1016.5
20260903085513 74 277 0.0 0.0 0.00 0.03 0.00 99 1016.6
20260903085011 74 277 0.0 0.0 0.00 0.03 0.00 99 1016.7
20260903084511 74 277 0.0 0.0 0.00 0.03 0.00 99 1016.6
20260903084012 74 277 0.0 0.0 0.00 0.03 0.00 99 1016.6
20260903083510 74 277 0.0 0.0 0.00 0.03 0.00 99 1016.6
20260903083011 74 277 0.0 0.0 0.00 0.03 0.00 99 1016.6
20260903082009 74 277 0.0 0.0 0.00 0.03 0.00 99 1016.6
20260903081508 74 277 0.0 0.0 0.00 0.03 0.00 100 1016.7
20260903081010 74 277 0.0 0.0 0.00 0.03 0.00 99 1016.7
20260903080511 74 266 0.0 0.0 0.00 0.03 0.00 99 1016.7
20260903080007 74 266 0.0 0.0 0.00 0.03 0.00 99 1016.6
20260903075512 75 266 0.0 0.0 0.00 0.03 0.00 99 1016.6
20260903075008 75 266 0.0 0.0 0.00 0.03 0.00 99 1016.5
20260903074507 75 266 0.0 0.0 0.00 0.03 0.00 99 1016.5
20260903074006 75 266 0.0 0.0 0.00 0.03 0.00 99 1016.5
20260903073506 75 266 0.0 0.0 0.00 0.03 0.00 99 1016.5
20260903073016 75 266 0.0 0.0 0.00 0.03 0.00 99 1016.5
20260903072014 75 266 0.0 0.0 0.00 0.03 0.00 99 1016.4
20260903071513 75 265 0.0 0.0 0.00 0.03 0.00 99 1016.4
20260903071012 75 266 0.0 0.0 0.00 0.03 0.00 99 1016.4
20260903070515 75 266 0.0 0.0 0.00 0.03 0.00 99 1016.4
20260903070012 75 265 0.0 0.0 0.00 0.03 0.00 99 1016.2
20260903065513 75 266 0.0 0.0 0.00 0.03 0.00 99 1016.2
20260903065012 75 265 0.0 0.0 0.00 0.03 0.00 99 1016.3
20260903064510 75 266 0.0 0.0 0.00 0.03 0.00 99 1016.2
20260903064011 75 266 0.0 0.0 0.00 0.03 0.00 99 1016.1
20260903063509 75 266 0.0 0.0 0.00 0.03 0.00 99 1016.1
20260903063009 75 265 0.0 0.0 0.00 0.03 0.00 99 1016.2
20260903062004 75 265 0.0 0.0 0.00 0.03 0.00 99 1016.1
20260903061505 75 266 0.0 0.0 0.00 0.03 0.00 99 1016.1
20260903061002 75 265 0.0 0.0 0.00 0.03 0.00 99 1016.1
20260903060502 76 265 0.0 0.0 0.00 0.03 0.00 99 1016.2
20260903060002 76 266 0.0 0.0 0.00 0.03 0.00 99 1016.2
20260903055500 76 265 0.0 1.0 0.00 0.03 0.00 99 1016.3
20260903055059 76 266 0.0 1.0 0.00 0.03 0.00 99 1016.3
20260903054600 76 266 0.0 0.0 0.00 0.03 0.00 99 1016.4
20260903054101 76 265 0.0 0.0 0.00 0.03 0.00 99 1016.4
20260903053600 76 265 0.0 0.0 0.00 0.03 0.00 99 1016.5
20260903053109 76 265 0.0 0.0 0.00 0.03 0.00 99 1016.4
20260903052659 76 266 0.0 0.0 0.00 0.03 0.00 99 1016.5
20260903052100 76 265 0.0 0.0 0.00 0.03 0.00 99 1016.5
20260903051558 76 265 0.0 0.0 0.00 0.03 0.00 99 1016.5
20260903051056 76 265 0.0 0.0 0.00 0.03 0.00 99 1016.6
20260903050556 76 266 0.0 0.0 0.00 0.03 0.00 98 1016.8
20260903050056 76 265 0.0 0.0 0.00 0.03 0.00 98 1016.9
20260903045555 76 266 0.0 0.0 0.00 0.03 0.00 99 1016.9
20260903045054 76 266 0.0 0.0 0.00 0.03 0.00 99 1016.9
20260903044603 76 265 0.0 0.0 0.00 0.03 0.00 99 1016.8
20260903044053 76 265 0.0 0.0 0.00 0.03 0.00 99 1016.7
20260903043552 76 265 0.0 0.0 0.00 0.03 0.00 98 1016.7
20260903043053 76 265 0.0 0.0 0.00 0.03 0.00 98 1016.6
20260903042654 77 266 0.0 0.0 0.00 0.03 0.00 98 1016.7
20260903042053 77 265 0.0 0.0 0.00 0.03 0.00 98 1016.7
20260903041554 77 265 0.0 0.0 0.00 0.03 0.00 98 1016.7
20260903041050 77 266 0.0 1.0 0.00 0.03 0.00 98 1016.7
20260903040551 77 266 0.0 1.0 0.00 0.03 0.00 98 1016.8
20260903040049 77 265 0.0 0.0 0.00 0.03 0.00 98 1016.9
20260903035548 77 266 0.0 0.0 0.00 0.03 0.03 98 1016.9
20260903035048 77 266 0.0 0.0 0.00 0.03 0.03 98 1016.9
20260903034548 77 266 0.0 0.0 0.00 0.03 0.03 98 1016.9
20260903034052 77 266 0.0 0.0 0.00 0.00 0.03 98 1016.8
20260903033547 77 266 0.0 0.0 0.00 0.03 0.03 98 1016.9
20260903033052 77 266 0.0 0.0 0.00 0.03 0.03 98 1016.7
20260903032649 77 266 0.0 0.0 0.00 0.03 0.03 98 1016.8
20260903032048 77 266 0.0 0.0 0.00 0.03 0.03 98 1016.9
20260903031550 77 266 0.0 0.0 0.00 0.03 0.03 98 1016.9
20260903031047 77 266 0.0 0.0 0.00 0.03 0.03 98 1016.9
20260903030547 77 266 0.0 0.0 0.00 0.03 0.03 98 1016.9
20260903030108 77 265 0.0 0.0 0.00 0.03 0.03 97 1016.9
20260903025546 77 266 0.0 0.0 0.00 0.03 0.03 97 1017.0
20260903025046 77 266 0.0 0.0 0.00 0.03 0.03 97 1016.9
20260903024546 77 266 0.0 0.0 0.00 0.03 0.03 97 1016.8
20260903024045 78 266 0.0 0.0 0.00 0.03 0.03 97 1016.8
20260903023545 78 266 0.0 0.0 0.00 0.03 0.03 97 1016.9
20260903023046 78 265 0.0 0.0 0.00 0.03 0.03 97 1016.9
20260903022647 78 265 0.0 0.0 0.00 0.03 0.03 97 1017.0
20260903022048 78 266 0.0 0.0 0.00 0.03 0.03 97 1017.0
20260903021549 78 266 0.0 0.0 0.00 0.03 0.03 96 1017.0
20260903021049 78 266 0.0 0.0 0.00 0.03 0.03 96 1016.7
20260903020548 78 266 0.0 0.0 0.00 0.03 0.03 96 1016.7
20260903020048 78 266 0.0 0.0 0.00 0.03 0.03 96 1016.8
20260903015549 79 265 0.0 0.0 0.00 0.03 0.03 96 1016.9
20260903015048 79 266 0.0 0.0 0.00 0.03 0.03 96 1016.9
20260903014559 79 265 0.0 0.0 0.00 0.03 0.03 96 1016.8
20260903014047 79 266 0.0 1.0 0.00 0.03 0.03 96 1016.9
20260903013550 79 265 0.0 1.0 0.00 0.03 0.03 95 1016.8
20260903013048 79 266 0.0 1.0 0.00 0.03 0.03 95 1016.8
20260903012647 79 266 0.0 1.0 0.00 0.03 0.03 95 1016.9
20260903012049 79 266 0.0 1.0 0.00 0.03 0.03 94 1016.9
20260903011602 79 265 0.0 1.0 0.00 0.03 0.03 94 1016.8
20260903011044 79 266 0.0 0.0 0.00 0.03 0.03 94 1016.8
20260903010544 80 265 0.0 1.0 0.00 0.03 0.03 94 1016.7
20260903010047 80 265 0.0 2.0 0.00 0.03 0.03 93 1016.5
20260903005543 80 266 0.0 2.0 0.00 0.03 0.03 93 1016.4
20260903005043 80 265 0.0 1.0 0.00 0.03 0.03 93 1016.6
20260903004544 80 265 0.0 1.0 0.00 0.03 0.03 93 1016.5
20260903004045 80 266 0.0 1.0 0.00 0.03 0.03 92 1016.6
20260903003542 80 264 0.0 1.0 0.00 0.03 0.03 92 1016.5
20260903003043 80 264 0.0 1.0 0.01 0.03 0.03 91 1016.5
20260903002642 80 269 0.0 1.0 0.01 0.03 0.03 91 1016.7
20260903002042 80 269 0.0 1.0 0.01 0.03 0.03 91 1016.7
20260903001542 81 271 0.0 0.0 0.00 0.00 0.03 90 1016.8
20260903001041 81 271 0.0 0.0 0.01 0.03 0.03 90 1016.8
20260903000541 81 271 0.0 2.0 0.01 0.03 0.03 89 1017.0
20260903000041 81 271 0.0 2.0 0.01 0.03 0.03 89 1017.0
20260902235541 81 269 0.0 0.0 0.01 0.04 0.03 89 1017.0
20260902235040 81 269 0.0 0.0 0.01 0.04 0.03 88 1016.9
20260902234540 82 269 0.0 0.0 0.01 0.04 0.03 87 1016.9
20260902234040 82 269 0.0 0.0 0.01 0.04 0.03 86 1016.8
20260902233540 82 269 0.0 0.0 0.01 0.04 0.03 85 1016.9
20260902233040 83 269 0.0 1.0 0.01 0.04 0.03 84 1016.9
20260902232644 83 269 0.0 3.0 0.00 0.03 0.02 83 1016.8
20260902232042 83 269 0.0 3.0 0.00 0.03 0.02 82 1016.8
20260902231551 84 294 0.0 2.0 0.00 0.03 0.02 81 1016.8
20260902231041 84 295 0.0 3.0 0.00 0.03 0.02 80 1016.5
20260902230541 84 237 0.0 3.0 0.00 0.03 0.02 79 1016.6
20260902230041 85 262 0.0 2.0 0.00 0.03 0.02 78 1016.5
20260902225541 86 288 0.0 2.0 0.00 0.03 0.02 77 1016.4
20260902225041 86 266 0.0 3.0 0.00 0.03 0.02 78 1016.4
20260902224553 87 259 0.0 3.0 0.00 0.03 0.02 77 1016.5
20260902224044 88 257 0.0 2.0 0.00 0.03 0.02 77 1016.4
20260902223540 88 255 0.0 2.0 0.00 0.03 0.02 76 1016.4
20260902223050 88 221 0.0 3.0 0.00 0.03 0.02 75 1016.3
20260902222644 89 216 0.0 3.0 0.00 0.03 0.02 76 1016.5
20260902222042 88 216 1.0 3.0 0.00 0.03 0.02 75 1016.5
20260902221549 89 223 1.0 5.0 0.00 0.03 0.02 74 1016.5
20260902221042 89 232 0.0 5.0 0.00 0.03 0.02 74 1016.5
20260902220539 89 245 0.0 4.0 0.00 0.03 0.02 74 1016.5
20260902220053 89 82 0.0 5.0 0.00 0.03 0.02 76 1016.5
20260902215540 89 243 1.0 5.0 0.00 0.03 0.02 73 1016.4
20260902215039 89 212 1.0 4.0 0.00 0.03 0.02 73 1016.4
20260902214539 89 221 1.0 5.0 0.00 0.03 0.02 73 1016.6
20260902214039 89 293 1.0 5.0 0.00 0.03 0.02 73 1016.6
20260902213541 89 281 1.0 7.0 0.00 0.03 0.02 74 1016.5
20260902213040 89 293 3.0 6.0 0.00 0.03 0.02 72 1016.6
20260902212638 90 220 3.0 6.0 0.00 0.03 0.02 73 1016.4
20260902212039 90 283 2.0 7.0 0.00 0.03 0.02 73 1016.4
20260902211538 90 244 2.0 7.0 0.00 0.03 0.02 73 1016.3
20260902211039 90 271 2.0 8.0 0.00 0.03 0.02 73 1016.3
20260902210541 90 228 2.0 8.0 0.00 0.03 0.02 71 1016.2
20260902210045 90 217 2.0 9.0 0.00 0.03 0.02 72 1016.1
20260902205539 90 229 3.0 9.0 0.00 0.03 0.02 72 1016.0
20260902205038 90 242 3.0 7.0 0.00 0.03 0.02 72 1016.0
20260902204546 90 208 3.0 7.0 0.00 0.03 0.02 72 1016.0
20260902204037 90 238 4.0 7.0 0.00 0.03 0.02 72 1015.9
20260902203537 91 186 2.0 7.0 0.00 0.03 0.02 73 1016.0
20260902203042 91 297 2.0 8.0 0.00 0.03 0.02 74 1016.1
20260902202638 92 72 0.0 6.0 0.00 0.03 0.02 72 1016.1
20260902202035 91 150 1.0 7.0 0.00 0.03 0.02 73 1016.2
20260902201544 92 242 3.0 7.0 0.00 0.03 0.02 71 1016.3
20260902201033 92 249 1.0 4.0 0.00 0.03 0.02 71 1016.3
20260902200533 92 109 1.0 6.0 0.00 0.03 0.02 73 1016.4
20260902200033 92 126 2.0 6.0 0.00 0.03 0.02 73 1016.4
20260902195533 93 222 0.0 5.0 0.00 0.03 0.02 75 1016.5
20260902195032 93 131 1.0 6.0 0.00 0.03 0.02 72 1016.5
20260902194535 93 243 1.0 6.0 0.00 0.03 0.02 73 1016.5
20260902194031 93 262 1.0 6.0 0.00 0.03 0.02 73 1016.5
20260902193531 93 219 0.0 6.0 0.00 0.03 0.02 72 1016.5
20260902193040 93 269 1.0 6.0 0.00 0.03 0.02 72 1016.6
20260902192630 93 79 0.0 7.0 0.00 0.03 0.02 73 1016.6
20260902192030 93 79 0.0 7.0 0.00 0.03 0.02 71 1016.6
20260902191530 93 257 1.0 7.0 0.00 0.03 0.02 71 1016.6
20260902191028 93 227 0.0 8.0 0.00 0.03 0.02 73 1016.7
20260902190528 93 245 1.0 8.0 0.00 0.03 0.02 72 1016.7
20260902190029 93 212 1.0 6.0 0.00 0.03 0.02 71 1016.7
20260902185526 93 240 0.0 4.0 0.00 0.03 0.02 73 1016.7
20260902185026 93 74 1.0 7.0 0.00 0.03 0.02 70 1016.7
20260902184525 94 290 1.0 4.0 0.00 0.03 0.02 69 1016.7
20260902184024 94 92 1.0 4.0 0.00 0.03 0.02 71 1016.8
20260902183524 94 236 1.0 5.0 0.00 0.03 0.02 71 1016.8
20260902183027 93 162 1.0 5.0 0.00 0.03 0.02 71 1016.8
20260902182626 94 147 1.0 8.0 0.00 0.03 0.02 71 1016.9
20260902182023 94 78 1.0 8.0 0.00 0.03 0.02 71 1017.0
20260902181523 94 173 2.0 8.0 0.00 0.03 0.02 70 1017.0
20260902181021 94 256 2.0 7.0 0.00 0.03 0.02 69 1017.0
20260902180522 94 202 0.0 5.0 0.00 0.03 0.02 71 1016.9
20260902180019 94 305 1.0 5.0 0.00 0.03 0.02 68 1017.0
20260902175518 94 143 2.0 4.0 0.00 0.03 0.02 69 1017.0
20260902175016 94 132 0.0 5.0 0.00 0.03 0.02 65 1017.0
20260902174518 94 270 0.0 5.0 0.00 0.03 0.02 66 1017.1
20260902174014 94 237 1.0 6.0 0.00 0.03 0.02 66 1017.1
20260902173513 94 253 0.0 6.0 0.00 0.03 0.02 71 1017.1
20260902173015 94 248 0.0 4.0 0.00 0.03 0.02 66 1017.1
20260902172612 94 264 0.0 4.0 0.00 0.03 0.02 66 1017.2
20260902172009 94 178 0.0 2.0 0.00 0.03 0.02 69 1017.1
20260902171508 93 270 0.0 5.0 0.00 0.03 0.02 67 1017.1
20260902171007 93 209 0.0 5.0 0.00 0.03 0.02 69 1017.2
20260902170508 93 236 1.0 6.0 0.00 0.03 0.02 65 1017.2
20260902170005 93 226 2.0 6.0 0.00 0.03 0.02 68 1017.2
20260902165507 93 126 0.0 0.0 0.00 0.03 0.02 71 1017.3
20260902165004 93 247 0.0 1.0 0.00 0.03 0.02 69 1017.3
20260902164502 92 124 0.0 6.0 0.00 0.03 0.02 68 1017.3
20260902164101 92 249 2.0 6.0 0.00 0.03 0.02 68 1017.3
20260902163501 92 257 0.0 3.0 0.00 0.03 0.02 68 1017.3
20260902163104 92 27 0.0 5.0 0.00 0.03 0.02 68 1017.3
20260902162600 92 228 1.0 5.0 0.00 0.03 0.02 69 1017.5
20260902162004 92 215 0.0 5.0 0.00 0.03 0.02 70 1017.4
20260902161501 92 254 1.0 5.0 0.00 0.03 0.02 72 1017.3
20260902161001 92 67 0.0 3.0 0.00 0.03 0.02 71 1017.4
20260902160559 92 228 0.0 5.0 0.00 0.03 0.02 70 1017.4
20260902160110 91 229 0.0 6.0 0.00 0.03 0.02 69 1017.5
20260902155558 91 233 3.0 6.0 0.00 0.03 0.02 68 1017.4
20260902155057 90 222 2.0 6.0 0.00 0.03 0.02 67 1017.5
20260902154559 90 250 2.0 6.0 0.00 0.03 0.02 69 1017.6
20260902154100 90 258 1.0 4.0 0.00 0.03 0.02 69 1017.6
20260902153557 90 225 0.0 8.0 0.00 0.03 0.02 70 1017.5
20260902153058 90 290 4.0 8.0 0.00 0.03 0.02 69 1017.6
20260902152557 90 213 0.0 7.0 0.00 0.03 0.02 72 1017.5
20260902152059 90 260 0.0 7.0 0.00 0.03 0.02 71 1017.5
20260902151555 89 248 3.0 7.0 0.00 0.03 0.02 69 1017.6
20260902151055 90 230 0.0 4.0 0.00 0.03 0.02 72 1017.7
20260902150553 89 254 1.0 8.0 0.00 0.03 0.02 72 1017.7
20260902150054 89 210 2.0 8.0 0.00 0.03 0.02 70 1017.5
20260902145553 89 239 1.0 5.0 0.00 0.03 0.02 71 1017.6
20260902145052 89 233 0.0 4.0 0.00 0.03 0.02 72 1017.6
20260902144551 88 209 1.0 4.0 0.00 0.03 0.02 71 1017.6
20260902144050 88 172 0.0 4.0 0.00 0.03 0.02 73 1017.5
20260902143549 87 293 2.0 5.0 0.00 0.03 0.02 71 1017.4
20260902143049 87 212 2.0 5.0 0.00 0.03 0.02 70 1017.5
20260902142548 87 271 2.0 7.0 0.00 0.03 0.02 71 1017.5
20260902142048 87 207 1.0 7.0 0.00 0.03 0.02 72 1017.4
20260902141545 86 253 2.0 7.0 0.00 0.03 0.02 73 1017.4
20260902141045 86 290 2.0 4.0 0.00 0.03 0.02 76 1017.4
20260902140546 86 235 2.0 7.0 0.00 0.03 0.02 77 1017.3
20260902140043 86 286 2.0 6.0 0.00 0.03 0.02 78 1017.3
20260902135543 86 282 2.0 5.0 0.00 0.03 0.02 79 1017.3
20260902135041 85 245 2.0 4.0 0.00 0.03 0.02 80 1017.3
20260902134550 85 279 2.0 4.0 0.00 0.03 0.02 79 1017.3
20260902134039 84 244 1.0 5.0 0.00 0.03 0.02 81 1017.4